Location: *
(57.8420°S, 159.8600°W)
Time: 13:04:45
(UTC+00:00)

CZ-2C R/B - Pass Details

Date: 18 May 2021
Orbit: 501 x 565 km, 97.7° (Epoch: 22 June)

Event Time Altitude Azimuth Distance (km) Brightness Sun altitude
Rises 03:19:02 0° 167° (SSE) 2,679 6.0 -6.8°
Reaches altitude 10° 03:21:11 10° 171° (S) 1,776 5.1 -7.1°
Maximum altitude 03:24:55 53° 248° (WSW) 647 3.5 -7.5°
Drops below altitude 10° 03:28:34 10° 325° (NW) 1,740 6.4 -8.0°
Sets 03:30:40 0° 329° (NNW) 2,617 7.3 -8.2°
